Lumberton, NC

3:44 AM EDT on October 19, 2017 (GMT -0400)
Lumberton Municipal

Weather History for KLBT - February, 2011

Change the Weather History Date:

Friday, February 25, 2011

  Actual Average Record
Temperature  
Mean Temperature 62 °F 49 °F  
Max Temperature 74 °F 61 °F 82 °F (2017)
Min Temperature 50 °F 37 °F 25 °F (2009)
Degree Days  
Heating Degree Days 3 16  
Month to date heating degree days 399 464  
Since 1 July heating degree days 2489 2183  
Cooling Degree Days 0 0  
Month to date cooling degree days 2 0  
Year to date cooling degree days 2 1  
Growing Degree Days 14 (Base 50)    
Moisture  
Dew Point 52 °F    
Average Humidity 62    
Maximum Humidity 90    
Minimum Humidity 34    
Precipitation  
Precipitation 0.05 in 0.11 in 0.82 in (2015)
Month to date precipitation 2.78 2.57  
Year to date precipitation 3.92 5.54  
Sea Level Pressure  
Sea Level Pressure 29.86 in    
Wind  
Wind Speed 14 mph (SW)    
Max Wind Speed 32 mph    
Max Gust Speed 43 mph    
Visibility 10 miles    
Events      
T = Trace of Precipitation, MM = Missing Value Source: NWS Daily Summary

Daily Weather History Graph

Daily Weather History Graph

Search for Another Location

Airport or City:

Trip Planner

Search our weather history database for the weather conditions in past years. The results will help you decide how hot, cold, wet, or windy it might be!

Date:

Astronomy

Feb. 25, 2011 Rise Set
Actual Time 6:50 AM EST 6:08 PM EST
Civil Twilight 6:25 AM EST 6:33 PM EST
Nautical Twilight 5:56 AM EST 7:03 PM EST
Astronomical Twilight 5:26 AM EST 7:32 PM EST
Moon 1:40 AM EST (2/25) 11:38 AM EST (2/25)
Length of Visible Light 12h 08m
Length of Day
11h 17m
Last Quarter, 42% of the Moon is Illuminated
Feb 25
Last Quarter
Mar 4
New
Mar 12
First Quarter
Mar 19
Full
Mar 26
Last Quarter

Hourly Weather History & Observations

Time (EST) Temp. Dew Point Humidity Pressure Visibility Wind Dir Wind Speed Gust Speed Precip Events Conditions
12:44 AM 60.8 °F 57.2 °F 88% 29.94 in 10.0 mi SSW 10.4 mph 16.1 mph N/A   Overcast
12:54 AM 61.0 °F 57.9 °F 90% 29.94 in 10.0 mi SSW 9.2 mph - N/A   Mostly Cloudy
1:54 AM 61.0 °F 57.9 °F 90% 29.91 in 10.0 mi South 8.1 mph - N/A   Scattered Clouds
2:18 AM 60.8 °F 59.0 °F 94% 29.89 in 10.0 mi South 8.1 mph - N/A   Mostly Cloudy
2:37 AM 62.6 °F 59.0 °F 88% 29.88 in 10.0 mi South 9.2 mph 19.6 mph N/A   Mostly Cloudy
2:54 AM 62.1 °F 59.0 °F 90% 29.87 in 10.0 mi SSW 9.2 mph - N/A   Mostly Cloudy
3:05 AM 62.6 °F 59.0 °F 88% 29.86 in 10.0 mi South 11.5 mph 19.6 mph N/A   Mostly Cloudy
3:34 AM 64.4 °F 60.8 °F 88% 29.85 in 10.0 mi SSW 12.7 mph 21.9 mph N/A   Overcast
3:54 AM 64.0 °F 60.1 °F 87% 29.83 in 10.0 mi South 11.5 mph 20.7 mph N/A   Mostly Cloudy
4:28 AM 64.4 °F 60.8 °F 88% 29.82 in 10.0 mi SSW 15.0 mph 26.5 mph N/A   Scattered Clouds
4:54 AM 64.0 °F 60.1 °F 87% 29.81 in 10.0 mi SSW 12.7 mph 20.7 mph N/A   Partly Cloudy
5:54 AM 64.0 °F 60.1 °F 87% 29.81 in 10.0 mi SSW 12.7 mph 17.3 mph N/A   Clear
6:54 AM 64.0 °F 59.0 °F 84% 29.79 in 10.0 mi SSW 11.5 mph 18.4 mph N/A   Partly Cloudy
7:54 AM 66.0 °F 57.0 °F 73% 29.81 in 10.0 mi SW 13.8 mph 20.7 mph N/A   Mostly Cloudy
8:54 AM 66.0 °F 55.9 °F 70% 29.82 in 9.0 mi SW 17.3 mph 25.3 mph N/A   Overcast
10:54 AM 62.1 °F 57.9 °F 86% 29.76 in 10.0 mi SSW 11.5 mph 20.7 mph 0.00 in   Partly Cloudy
11:54 AM 66.9 °F 55.9 °F 68% 29.75 in 10.0 mi SW 19.6 mph 27.6 mph N/A   Clear
12:54 PM 70.0 °F 55.0 °F 59% 29.74 in 10.0 mi WSW 26.5 mph 34.5 mph 0.02 in   Scattered Clouds
1:54 PM 72.0 °F 51.1 °F 48% 29.74 in 10.0 mi WSW 26.5 mph 36.8 mph N/A   Partly Cloudy
2:54 PM 73.9 °F 50.0 °F 43% 29.74 in 10.0 mi WSW 21.9 mph 38.0 mph N/A   Scattered Clouds
3:54 PM 73.9 °F 48.0 °F 40% 29.76 in 10.0 mi WSW 23.0 mph 36.8 mph N/A   Clear
4:54 PM 73.0 °F 46.9 °F 39% 29.79 in 10.0 mi West 18.4 mph 28.8 mph N/A   Clear
5:54 PM 70.0 °F 46.0 °F 42% 29.83 in 10.0 mi West 10.4 mph - N/A   Partly Cloudy
6:54 PM 66.9 °F 46.0 °F 47% 29.89 in 10.0 mi NW 12.7 mph 17.3 mph N/A   Scattered Clouds
7:54 PM 64.0 °F 35.1 °F 34% 29.94 in 10.0 mi NW 9.2 mph - N/A   Clear
8:54 PM 61.0 °F 35.1 °F 38% 29.99 in 10.0 mi North 9.2 mph - N/A   Clear
9:54 PM 57.9 °F 34.0 °F 41% 30.03 in 10.0 mi North 9.2 mph - N/A   Clear
10:54 PM 55.0 °F 32.0 °F 42% 30.07 in 10.0 mi NNE 13.8 mph - N/A   Clear
11:54 PM 51.1 °F 32.0 °F 48% 30.08 in 10.0 mi NNE 9.2 mph - N/A   Clear